GFSNGP_con_lsi_273.txt.gz
Lid_Strength_Index
7 7 7 7 8 7 8 8 10 8 9 8 6 5 5 4 4 4 4 4 3 3 3 2 2 4 4 4 5 5 5 5 4 4 4 3 3 3 2 3 3 3 3 3
8 7 7 8 7 7 7 7 7 7 8 5 5 4 5 4 4 5 4 4 3 3 3 2 3 4 4 5 4 6 5 5 4 4 4 4 3 3 3 3 3 3 3 3
11 7 8 10 8 7 7 6 7 9 7 5 6 5 5 4 4 4 4 4 3 3 2 2 3 4 4 4 5 4 5 4 4 5 5 4 3 3 3 3 2 3 3 3
10 9 14 7 5 6 6 6 6 6 6 5 5 5 4 3 4 4 4 3 3 2 2 2 3 4 4 5 6 5 4 4 5 5 5 4 4 3 3 2 3 3 3 3
11 12 10 9 7 7 7 7 5 6 5 5 4 4 5 4 3 3 3 3 2 2 1 2 3 4 5 5 5 4 5 5 5 5 5 5 3 3 3 3 3 3 3 3
10 16 17 8 6 4 5 10 5 5 5 5 5 7 7 4 3 3 2 2 2 1 1 3 4 5 4 4 4 5 5 5 5 5 5 4 3 3 2 2 3 3 3 3
10 12 10 6 6 5 11 9 4 4 4 5 6 6 4 3 3 2 2 2 1 2 3 4 4 5 6 4 4 5 4 5 5 4 5 3 3 3 2 3 3 3 3 2
10 12 14 5 5 8 6 4 4 4 4 5 5 4 4 3 3 3 3 2 2 3 4 4 4 4 5 5 4 4 5 4 4 5 5 5 3 3 3 3 3 3 3 4
8 9 6 4 4 4 3 4 4 4 3 4 4 4 4 4 3 3 2 2 3 4 3 4 4 4 4 3 3 3 4 4 4 4 3 3 3 3 4 3 4 5 5 5
8 6 6 5 4 3 3 3 3 3 3 3 4 3 4 3 3 3 2 3 2 3 5 5 4 3 2 3 3 3 4 4 3 3 4 3 3 4 4 4 5 5 6 5
7 6 5 4 4 4 3 3 3 3 3 3 3 3 3 3 3 2 2 2 3 4 4 3 3 3 2 3 3 3 3 4 3 4 3 3 3 4 4 3 5 5 5 5
8 5 5 4 3 3 4 3 3 3 3 3 3 3 2 3 2 2 3 3 4 3 3 3 3 3 3 2 3 3 3 4 4 4 4 4 4 4 8 7 8 8 9 9
6 4 4 4 3 3 3 3 3 3 3 3 2 2 2 2 2 3 3 4 3 3 3 3 3 3 3 3 3 3 4 3 4 5 5 4 4 4 4 7 9 9 9 9
3 3 5 4 4 3 3 2 3 2 2 2 2 2 2 2 2 3 3 3 3 2 3 3 4 4 3 3 4 4 4 6 5 5 5 5 4 3 3 4 5 6 8 9
4 3 3 3 3 3 3 2 3 3 3 3 2 2 2 2 3 3 3 3 3 3 3 3 4 3 3 4 4 4 4 5 6 5 5 5 3 3 4 4 5 6 6 8
3 3 3 4 4 3 3 3 3 3 3 3 2 2 2 2 3 3 2 2 3 3 3 4 3 3 3 4 4 4 5 8 9 5 4 4 4 4 4 4 5 6 7 7
4 5 4 4 4 4 4 3 3 3 3 2 2 2 1 2 2 3 2 2 1 2 2 3 3 3 3 3 4 5 5 5 9 4 3 4 4 4 4 5 6 7 8 9
3 2 3 3 3 3 3 3 3 3 3 2 2 1 2 2 2 2 2 1 2 2 2 2 2 2 3 4 4 4 5 5 4 3 4 4 4 3 4 5 6 7 8 7
2 2 2 2 2 2 3 3 2 2 2 2 2 2 2 1 1 1 1 2 2 3 3 1 7 4 3 7 7 5 4 4 4 4 4 6 4 3 4 6 6 7 7 8
3 3 3 2 2 2 3 2 2 2 2 2 2 2 2 2 1 1 1 2 2 2 1 2 2 2 3 5 7 4 3 3 4 4 4 4 3 3 5 8 7 7 7 8
3 4 4 3 3 1 2 1 2 2 2 1 2 2 2 1 1 1 2 3 2 3 2 6 2 2 3 6 5 3 3 3 4 4 4 4 3 4 5 6 7 7 8 8
2 2 2 2 2 2 1 1 1 2 2 2 2 2 2 2 1 1 1 2 2 12 3 2 3 9 6 10 3 3 3 4 4 4 4 3 3 4 6 6 6 7 7 8
2 2 2 2 2 2 1 1 1 2 2 2 2 2 2 1 1 2 2 1 2 6 2 4 10 11 12 4 3 4 4 4 4 4 4 3 3 5 5 5 5 6 7 7
3 3 2 2 2 2 3 2 2 1 1 1 1 1 1 1 1 0 2 8 10 7 5 6 8 11 13 3 3 3 3 4 5 4 3 7 3 5 5 4 5 6 7 8
2 3 3 3 3 3 2 2 2 2 2 1 1 0 -0 -0 1 1 2 4 11 7 5 12 11 11 4 4 4 4 4 5 4 4 3 3 4 5 5 5 5 6 7 7
2 2 2 3 3 2 2 2 3 2 2 2 1 1 0 1 1 2 3 5 4 7 3 4 3 4 4 4 4 4 4 4 4 3 4 3 4 5 5 5 6 6 7 7
1 7 2 2 2 2 2 2 2 2 2 1 2 1 2 2 2 4 7 4 3 3 4 4 4 6 4 3 4 4 4 4 7 4 4 4 4 5 5 5 6 6 7 7

GFSNGP_con_lsi_276.txt.gz
Lid_Strength_Index
8 8 7 8 8 8 8 8 11 9 9 8 7 8 8 7 5 5 4 4 4 4 3 3 2 2 3 4 5 5 4 4 3 2 1 2 2 3 3 2 2 2 3 3
9 7 7 8 8 7 8 7 8 8 9 6 6 5 6 6 5 5 5 4 4 3 3 3 2 3 3 4 5 5 4 4 3 2 2 2 3 3 3 1 2 2 3 3
12 8 8 10 8 7 7 7 7 9 9 7 7 6 5 5 4 5 5 4 4 3 3 3 2 2 3 4 4 4 3 4 3 2 3 3 3 3 3 2 2 2 2 2
12 10 15 8 6 6 7 6 6 7 6 6 6 5 4 4 4 4 4 4 3 3 3 2 2 2 4 4 5 3 3 4 4 3 4 4 3 3 2 1 2 2 2 2
13 12 10 8 7 7 7 8 5 6 6 5 5 5 5 4 3 4 3 3 3 2 2 2 2 4 4 5 3 4 4 4 5 4 4 4 4 4 2 2 2 2 2 3
11 14 15 9 7 6 5 10 5 5 6 6 5 8 8 4 3 3 3 3 3 2 2 2 3 4 4 4 4 4 4 4 4 4 3 4 4 3 3 2 3 2 3 2
12 13 11 8 7 6 12 10 5 5 5 5 7 6 5 3 4 3 3 3 2 2 3 3 4 3 5 4 4 3 3 3 3 2 2 3 2 2 2 2 2 3 3 2
11 14 15 6 7 11 7 4 5 5 5 6 5 5 4 4 4 3 3 3 2 3 4 4 4 3 4 4 3 3 3 3 3 3 4 4 2 1 2 2 2 4 5 4
9 9 8 6 6 4 4 5 4 5 4 5 5 5 4 4 4 3 3 2 2 4 4 4 3 3 4 3 3 2 2 2 2 2 3 2 3 2 2 3 4 5 5 5
8 7 6 6 5 5 5 4 3 3 4 4 5 4 4 4 3 3 3 3 3 3 5 5 4 3 3 3 2 2 3 2 2 3 3 2 3 3 3 3 4 5 5 5
8 7 6 5 5 4 4 3 3 3 3 3 4 4 4 4 3 3 2 2 3 4 5 4 3 3 3 3 3 2 3 3 2 4 3 3 2 2 3 5 5 5 5 6
10 6 7 7 5 4 4 4 3 3 3 3 3 3 3 3 3 2 2 3 4 4 3 3 3 3 3 2 3 2 3 4 4 5 4 4 4 4 8 8 8 7 8 8
8 6 5 6 4 3 3 3 3 3 3 3 3 3 3 3 2 3 2 3 3 3 3 3 3 4 3 2 3 2 3 3 5 6 5 5 5 5 5 8 8 9 9 8
5 6 6 4 5 3 3 3 3 2 2 2 2 2 2 3 2 2 3 3 3 3 3 3 4 3 3 3 3 3 3 6 5 6 6 5 5 3 3 4 5 5 8 9
5 5 4 4 3 3 3 3 3 4 3 3 2 2 2 3 3 3 2 3 3 3 3 4 4 3 3 3 3 3 3 4 5 5 5 5 4 4 4 4 4 5 6 7
4 4 4 4 4 4 3 4 4 4 3 3 3 3 2 2 2 3 3 3 3 3 3 3 3 3 3 3 2 3 3 6 8 5 4 4 4 4 4 4 5 6 6 8
5 5 4 5 5 5 4 4 4 4 3 3 3 2 2 2 3 3 3 2 2 2 2 2 2 3 3 2 2 3 4 4 8 5 4 4 5 4 4 5 5 6 7 8
3 3 3 3 4 4 4 3 3 3 3 3 2 2 2 2 3 2 2 2 2 2 1 1 2 2 2 3 4 4 4 5 4 4 4 4 4 3 4 5 6 6 7 7
3 3 3 3 2 3 3 3 3 3 2 2 2 2 2 2 2 2 1 2 2 2 2 1 6 5 2 4 7 6 4 4 4 4 4 6 4 4 4 5 6 7 8 8
3 2 2 2 2 2 3 2 2 2 3 2 2 2 2 2 2 2 1 2 1 1 0 3 3 2 3 4 7 5 3 3 4 4 4 4 4 4 4 8 7 7 7 8
3 4 4 4 2 2 2 2 3 3 2 2 2 3 2 2 2 1 2 3 1 2 2 5 2 3 4 7 6 4 3 4 4 4 4 4 3 4 5 6 6 6 7 8
3 4 4 4 3 3 2 1 2 2 3 3 3 2 2 2 2 1 1 2 2 10 4 3 4 10 7 11 4 4 3 4 4 4 4 4 4 4 5 6 6 6 7 7
2 2 2 3 2 2 1 1 2 2 3 3 2 2 2 2 2 2 3 1 2 6 3 5 11 11 12 5 3 4 4 4 5 5 4 4 3 4 5 6 5 6 7 7
3 3 2 2 2 2 2 2 2 1 2 2 2 1 2 2 2 2 3 8 10 7 6 7 8 11 13 5 4 3 4 5 5 4 4 7 4 4 5 5 6 6 7 7
3 3 2 2 3 3 2 2 2 2 2 2 2 2 1 1 1 1 2 5 11 6 5 12 11 11 5 4 4 4 5 5 5 4 4 4 4 4 5 6 6 6 7 7
3 3 3 2 2 2 2 2 3 2 2 3 2 1 1 1 1 2 3 6 4 7 5 5 3 3 4 4 4 5 4 5 5 4 5 4 5 5 6 6 6 7 7 7
2 5 2 3 2 2 2 3 3 3 2 2 2 1 1 1 2 4 7 4 4 4 4 4 3 6 4 4 4 4 4 4 8 5 5 5 5 5 6 7 7 6 7 7

GFSNGP_con_lsi_279.txt.gz
Lid_Strength_Index
9 8 8 9 9 10 11 11 12 11 10 10 9 9 8 7 6 6 6 5 5 5 5 5 5 5 5 6 7 8 7 7 7 6 6 6 6 6 6 7 7 7 5 5
11 8 8 10 9 8 9 9 9 9 10 8 8 7 8 7 7 7 6 5 5 5 5 5 5 5 5 6 7 7 7 7 5 6 6 7 6 7 6 6 7 6 5 5
14 10 9 12 10 9 9 8 9 11 10 8 8 8 7 7 6 6 5 5 5 5 5 5 5 5 6 6 7 7 6 5 5 6 6 6 6 6 7 7 7 7 6 6
13 12 16 10 7 7 8 7 8 9 8 8 8 7 6 6 6 6 5 5 4 5 5 6 6 6 7 7 7 7 5 5 5 6 6 6 7 6 7 7 7 7 6 5
15 15 12 9 8 9 11 10 7 8 8 7 6 6 7 5 5 5 5 5 5 5 6 6 7 7 7 8 7 5 5 6 6 6 6 6 7 8 8 7 8 6 5 6
14 16 17 11 8 7 7 13 7 7 8 7 7 11 10 5 4 4 4 5 6 6 6 7 7 8 8 7 6 6 6 6 5 6 6 7 8 8 7 7 6 5 6 6
15 15 13 9 7 6 13 13 8 7 6 7 8 7 6 5 5 5 5 5 5 6 7 7 7 7 7 7 7 6 6 5 5 6 6 7 7 7 7 7 6 6 7 7
15 16 18 7 7 11 9 7 7 7 7 7 6 6 5 5 5 5 5 5 5 6 7 7 6 7 7 8 7 6 6 5 5 6 6 5 7 7 6 6 6 9 8 8
13 13 8 7 8 7 6 7 6 6 6 6 6 6 5 5 5 5 5 5 5 7 7 7 7 7 8 7 6 6 5 6 6 6 6 7 8 7 8 8 9 9 8 9
11 10 9 7 6 5 5 6 5 5 5 5 6 5 5 5 5 4 4 5 5 6 7 8 7 6 6 6 5 5 6 6 6 7 8 8 6 6 8 9 9 9 9 9
10 9 8 7 6 5 5 5 5 4 4 5 5 5 5 5 4 4 4 5 5 7 7 7 7 6 6 5 5 6 6 6 7 8 9 8 8 9 9 11 9 9 9 9
13 9 8 7 6 4 5 5 4 5 5 4 4 4 4 4 4 4 5 5 6 6 6 6 5 6 6 5 6 6 7 7 7 8 9 8 9 9 10 10 9 8 8 9
9 6 6 6 5 4 5 4 4 4 4 4 4 4 4 4 4 4 5 6 6 5 4 5 6 6 6 5 5 6 7 7 8 8 10 10 9 8 9 9 9 9 9 9
5 6 7 6 7 5 4 4 4 3 3 3 4 3 3 4 4 4 5 5 4 4 4 5 6 6 5 5 6 6 6 6 8 9 9 9 8 8 7 8 9 9 8 9
5 5 5 5 5 4 4 4 4 4 4 4 3 4 4 4 4 5 4 4 4 4 5 5 5 6 5 4 5 6 5 6 8 9 9 8 8 8 7 8 9 9 9 8
5 5 5 5 5 5 4 4 5 4 4 4 4 4 4 3 4 4 4 4 5 6 6 5 5 5 4 5 5 6 6 8 8 9 9 8 8 7 8 8 9 9 9 9
7 7 6 6 5 5 5 4 4 4 4 4 4 4 3 4 4 4 4 4 4 5 5 5 5 4 4 6 8 8 7 7 10 9 7 8 8 7 8 8 9 9 10 10
4 4 4 5 5 5 4 4 4 4 4 3 3 3 3 4 5 4 4 4 5 5 5 5 5 4 5 6 8 9 9 8 7 7 7 8 8 7 8 8 9 10 11 9
3 4 4 4 4 4 4 4 4 3 3 3 3 4 3 3 3 4 5 5 5 5 5 6 6 6 5 6 8 9 9 7 6 7 7 9 7 7 8 9 9 10 10 9
4 4 3 3 4 4 4 4 3 3 3 3 3 4 3 3 4 4 4 5 4 4 5 7 6 5 6 8 9 9 8 7 7 7 8 8 7 6 7 9 9 10 10 9
4 5 5 3 3 3 3 3 3 3 3 2 3 3 3 3 3 4 5 6 4 4 5 6 7 7 9 11 9 7 6 6 7 8 7 7 6 6 7 8 9 9 9 8
4 4 5 4 3 4 3 3 3 3 3 3 3 3 3 4 4 4 3 5 6 10 6 6 9 12 10 11 7 6 6 7 8 8 7 7 6 6 8 8 10 10 9 8
4 4 4 3 4 4 3 3 3 3 3 3 3 3 3 4 3 5 6 5 5 9 7 9 12 13 13 8 7 6 7 8 8 7 7 7 7 7 8 9 9 9 8 8
4 4 4 3 3 3 4 4 3 2 2 2 2 2 4 4 4 5 7 9 11 9 8 10 11 12 12 8 7 7 8 8 8 7 6 9 7 7 8 8 10 9 8 9
4 4 3 4 4 4 4 3 3 3 3 3 2 2 4 3 5 6 7 8 11 9 9 12 11 11 7 6 7 8 8 8 8 8 7 7 8 8 8 8 8 8 8 8
4 4 4 3 3 3 3 3 4 3 3 3 3 3 4 5 6 5 6 7 8 10 9 9 7 6 6 7 7 7 7 8 8 8 8 8 8 8 8 7 8 8 8 8
3 5 3 3 3 3 3 4 3 3 3 3 4 4 5 5 6 6 8 7 7 7 8 7 7 7 7 7 7 7 7 8 10 8 8 8 8 8 8 8 8 8 8 9

GFSNGP_con_lsi_285.txt.gz
Lid_Strength_Index
12 10 10 11 10 11 13 13 14 12 12 10 9 9 8 7 6 7 6 6 6 6 6 6 7 8 9 9 9 8 8 8 8 7 8 8 7 7 7 7 7 7 7 7
13 11 10 11 10 10 10 11 12 12 12 9 8 7 7 7 7 7 6 6 6 6 6 7 8 9 9 9 8 7 8 8 7 7 7 7 8 7 7 7 8 7 7 7
16 12 11 13 11 10 10 10 11 12 10 9 10 8 8 7 7 7 6 6 6 6 6 7 8 8 9 9 8 8 8 7 6 7 7 8 7 7 8 9 9 9 8 8
15 13 18 11 9 9 9 9 10 9 9 9 9 8 7 6 6 6 6 6 5 6 7 8 8 9 9 8 8 8 8 6 7 7 8 8 8 9 9 9 9 9 9 9
15 16 13 11 9 10 11 10 8 8 9 8 7 7 8 5 5 5 5 6 5 6 8 9 9 9 9 9 9 7 7 7 7 8 8 8 9 9 9 9 10 10 9 9
14 18 19 12 8 6 7 12 8 8 9 9 8 12 9 6 6 6 7 7 7 8 9 9 11 10 10 9 8 7 7 7 7 8 7 8 9 9 9 10 9 8 9 10
13 15 13 9 8 7 13 11 8 7 7 8 9 8 7 6 7 7 7 8 8 8 10 10 11 11 9 8 8 8 7 7 7 8 8 9 9 9 9 10 9 10 9 10
15 16 16 7 8 11 9 8 7 7 7 8 7 7 7 7 8 8 9 9 9 10 11 12 10 9 9 9 8 8 7 7 7 8 8 8 10 10 10 10 10 11 11 10
13 13 8 7 7 7 7 8 7 7 7 6 7 7 7 8 8 9 9 9 9 11 11 10 9 8 9 8 8 7 7 8 8 8 9 9 10 10 9 10 11 11 11 11
11 8 8 7 7 6 6 6 6 6 5 6 7 7 8 9 9 8 9 10 9 10 11 11 9 7 8 8 7 7 8 8 9 9 9 10 10 10 10 11 11 10 10 10
11 9 8 7 7 6 6 5 5 5 5 6 7 7 8 8 7 8 9 9 9 10 10 8 8 7 7 7 7 8 8 8 9 10 10 10 11 10 10 11 10 10 10 10
12 9 9 8 7 5 6 6 5 5 5 5 5 6 6 7 8 8 9 9 9 9 9 8 7 7 7 7 7 8 9 9 9 9 10 11 11 10 9 9 9 9 9 10
9 6 7 6 5 5 6 5 5 5 4 5 6 6 7 8 8 8 9 8 9 8 8 8 7 7 6 7 7 8 10 9 9 9 11 11 11 10 10 9 8 9 9 9
5 6 8 6 7 5 5 4 4 4 4 5 6 6 7 7 8 8 8 8 8 7 7 7 7 6 6 7 8 8 9 8 9 9 10 11 10 9 10 10 10 10 9 10
6 5 6 5 5 5 4 5 5 5 6 6 6 7 7 8 8 8 8 8 6 6 6 6 6 7 6 7 8 8 9 10 10 10 11 10 10 9 9 10 10 11 11 11
6 6 5 6 6 5 5 5 6 5 5 6 7 7 7 7 7 8 8 6 6 7 7 7 7 7 7 9 11 11 11 10 10 11 10 10 9 10 10 10 11 11 11 11
7 8 7 7 6 6 6 5 5 5 5 5 7 7 7 7 7 6 6 6 6 7 7 7 7 7 8 10 12 11 11 10 12 10 10 10 9 9 10 10 11 11 12 11
5 5 4 5 6 5 5 5 4 5 5 5 5 5 5 5 6 6 7 6 7 7 7 7 8 7 8 9 11 11 11 10 9 9 9 9 9 10 10 10 11 11 11 11
4 5 4 4 4 4 5 4 4 5 5 5 5 5 5 5 5 7 7 6 7 8 8 8 8 9 10 10 10 10 9 10 9 9 10 10 9 10 10 10 11 11 11 11
4 4 4 4 4 4 4 4 4 5 5 5 6 6 6 6 6 6 6 8 8 8 9 8 9 11 11 9 10 9 10 9 9 9 9 9 9 10 10 11 11 11 11 11
5 4 5 5 4 4 3 3 4 5 5 5 6 6 6 6 6 6 7 8 9 9 8 9 11 11 10 10 10 10 9 9 9 9 9 10 10 10 10 10 11 10 11 10
4 4 5 5 4 4 3 3 4 5 5 5 5 6 6 6 7 8 8 7 9 13 11 11 12 13 11 12 10 10 9 9 9 9 9 9 10 10 10 11 11 10 10 9
4 4 4 4 4 4 3 3 4 4 5 5 5 5 6 6 6 7 8 9 9 12 11 12 13 13 13 9 10 9 9 9 9 9 9 10 10 10 11 11 11 9 9 9
4 4 4 5 4 4 4 4 4 4 4 5 5 5 6 7 8 9 9 13 14 13 12 12 13 13 11 10 10 10 10 10 10 9 9 11 10 10 10 10 11 9 10 10
5 4 4 5 6 5 4 4 4 4 5 5 5 5 5 6 7 10 10 12 14 12 11 13 13 12 10 10 10 10 11 11 11 10 10 10 10 10 10 10 10 10 10 10
5 5 4 4 5 4 4 4 5 5 5 6 6 7 8 8 9 10 11 12 11 12 9 9 10 10 10 10 10 11 11 11 12 12 12 11 11 10 10 10 10 10 10 11
5 7 4 4 5 4 4 4 5 5 5 5 8 8 8 9 10 11 12 11 10 10 9 10 10 10 10 10 11 11 12 12 13 13 12 12 11 11 11 10 9 10 11 12

GFSNGP_con_lsi_291.txt.gz
Lid_Strength_Index
9 9 8 9 9 9 10 9 11 10 9 7 6 6 5 5 6 6 6 5 5 4 4 3 3 4 4 4 4 4 4 3 3 2 1 1 2 2 1 2 3 2 3 3
10 9 9 10 9 9 9 8 9 9 9 6 5 5 5 5 6 6 6 5 5 4 4 3 3 5 4 4 5 4 4 4 3 2 2 2 2 2 2 2 3 3 3 3
12 9 9 11 9 9 8 8 7 10 7 5 6 6 5 5 5 6 5 5 5 4 4 3 3 4 4 4 4 4 5 5 5 2 2 2 2 3 3 3 3 3 2 2
12 10 15 9 6 7 8 7 7 7 6 5 5 5 5 4 5 5 5 5 4 4 3 2 3 4 4 4 4 5 5 5 5 2 3 3 3 3 2 3 3 3 2 2
13 13 11 9 8 8 8 8 6 7 6 5 5 6 5 4 4 4 4 4 3 3 2 4 4 4 4 4 4 5 6 5 4 3 3 3 3 3 3 3 3 3 3 3
11 14 15 10 7 5 6 11 5 5 5 6 6 8 6 4 4 4 3 3 3 3 3 4 3 4 5 5 5 5 5 5 4 4 3 3 3 3 3 3 3 3 3 3
13 13 11 7 6 5 11 10 6 5 5 6 7 6 5 4 4 3 3 3 2 4 4 3 4 5 5 5 5 5 5 5 4 3 3 3 3 3 3 3 3 3 3 3
13 14 15 6 7 9 8 6 5 5 5 5 5 5 5 4 4 4 4 4 4 4 4 4 5 5 5 5 5 5 5 5 3 3 3 4 4 4 3 3 4 3 3 3
10 10 7 6 6 5 4 5 5 5 5 4 5 5 5 5 4 4 4 4 4 5 6 6 5 5 6 6 5 5 3 3 3 3 3 4 5 4 4 4 4 4 4 4
10 7 6 5 5 5 4 5 4 4 4 4 5 4 5 4 4 4 4 5 6 6 6 7 6 6 5 5 5 3 3 3 3 3 4 4 5 4 4 4 4 4 4 5
9 8 7 7 5 4 4 4 4 4 4 4 4 4 4 4 5 5 6 6 6 6 7 8 7 6 5 4 2 3 3 3 3 3 4 4 4 4 4 3 5 4 4 5
12 8 8 7 5 4 5 5 4 4 5 4 4 4 4 4 5 6 6 6 7 7 7 7 6 6 4 2 3 3 3 4 4 4 4 4 4 4 8 9 9 9 10 8
8 6 6 5 5 5 5 4 4 4 4 4 4 3 4 5 6 7 7 7 8 7 7 7 6 5 3 3 3 3 3 3 4 5 5 4 5 4 5 5 9 9 9 9
4 5 7 7 6 4 4 4 3 3 3 3 3 3 4 5 7 7 7 6 7 8 7 6 5 4 4 3 3 3 3 9 5 5 4 4 5 4 4 4 5 5 7 7
6 6 7 5 5 4 4 4 5 5 4 4 3 4 5 6 6 7 7 7 6 7 7 6 5 5 3 3 3 4 4 5 4 4 4 6 5 4 4 4 5 5 5 7
4 5 5 6 5 5 4 4 5 5 5 4 4 4 5 5 7 8 7 7 7 7 6 5 5 4 3 4 5 5 5 9 8 4 5 5 5 4 4 5 5 6 6 7
7 9 8 8 6 5 5 4 4 5 4 4 4 5 6 7 8 8 7 6 6 5 5 5 5 4 5 5 5 5 4 4 11 5 5 5 4 4 5 5 6 6 6 7
7 7 6 6 5 5 5 5 4 4 4 4 5 7 7 8 8 6 6 6 6 6 5 4 4 5 6 5 5 4 5 5 5 5 5 5 5 5 6 6 6 6 7 8
5 4 5 5 4 5 4 5 5 5 6 7 8 8 8 7 7 7 6 7 7 7 5 4 9 6 5 7 6 5 5 5 5 5 5 7 6 6 6 6 6 6 8 9
4 4 4 4 4 4 4 5 5 6 6 7 8 8 9 7 7 7 7 7 5 4 4 6 5 5 5 7 8 5 5 5 5 5 6 6 7 6 6 8 7 8 9 9
4 4 4 4 4 4 4 4 6 6 6 6 7 7 7 7 7 7 7 6 5 5 6 8 5 6 6 7 6 5 5 5 5 6 6 7 7 6 6 6 7 8 9 10
4 4 4 4 4 4 4 5 5 6 6 6 6 6 7 7 6 5 4 7 8 12 8 6 6 10 8 10 5 5 5 6 6 6 7 7 6 6 6 7 7 9 9 10
5 4 4 4 4 4 4 4 4 5 6 5 4 4 5 5 5 6 8 7 7 10 7 7 12 13 12 5 5 6 6 6 6 7 7 6 6 6 7 7 8 9 10 11
4 5 4 4 3 4 4 4 3 3 3 3 4 5 6 6 7 6 7 11 13 10 8 9 11 13 11 6 6 7 7 7 8 7 6 9 6 6 7 8 9 9 10 11
3 5 4 4 4 4 4 4 5 5 5 5 4 3 3 3 5 6 7 9 13 9 8 14 13 12 6 7 7 8 8 8 8 6 6 6 6 7 7 9 9 9 10 11
4 4 4 3 3 4 3 3 5 5 4 4 4 4 4 5 6 7 7 9 7 9 7 6 6 6 7 8 8 8 8 8 7 7 7 6 7 7 9 9 9 9 10 11
4 7 3 3 3 3 3 3 4 5 6 4 5 5 5 5 7 7 9 6 6 6 7 7 7 8 7 8 8 8 8 8 10 7 7 6 7 8 9 9 9 9 10 10